Location: El Abasto
(10.3790°N, 67.5897°W)
Time: 18:08:32
(UTC+00:00)

Timation 2 Rocket - Pass Details

Date: 19 May 2024
Orbit: 905 x 1074 km, 70.0° (Epoch: 12 June)

Event Time Altitude Azimuth Distance (km) Brightness Sun altitude
Rises 23:07:15 0° 352° (N) 3,572 7.4 -5.7°
Reaches altitude 10° 23:09:53 10° 358° (N) 2,612 6.6 -6.3°
Maximum altitude 23:15:40 49° 72° (ENE) 1,159 4.1 -7.7°
Drops below altitude 10° 23:21:22 10° 146° (SE) 2,580 5.7 -9.0°
Enters shadow 23:22:51 - 149° (SSE) 3,125 6.2 -9.3°
